EW0349 Weather Reports


time (UTC)temp
C
wind
direction
speed
KPH
gust
KPH
rain 1hr
cm
rain 24hr
cm
rain mn
cm
humidity
%
barometer
mb
20260902014509 16 194 3.2 9.7 0.00 0.00 0.00 54 1011.6
20260902013008 15 184 1.6 4.8 0.00 0.00 0.00 52 1011.6
20260902011603 15 292 0.0 9.7 0.00 0.00 0.00 53 1011.6
20260902010054 16 248 1.6 17.7 0.00 0.00 0.00 56 1011.6
20260902004550 16 191 3.2 11.3 0.00 0.00 0.00 60 1011.6
20260902003046 17 288 1.6 11.3 0.00 0.00 0.00 61 1011.3
20260902001541 17 266 1.6 20.9 0.00 0.00 0.00 61 1011.2
20260902000138 18 284 1.6 6.4 0.00 0.00 0.00 59 1011.0
20260901234531 18 316 0.0 11.3 0.00 0.00 0.00 59 1010.9
20260901233027 18 284 3.2 12.9 0.00 0.00 0.00 58 1011.1
20260901231523 18 267 3.2 6.4 0.00 0.00 0.00 58 1011.1
20260901230029 18 194 1.6 8.0 0.00 0.00 0.00 59 1011.1
20260901224519 18 221 3.2 11.3 0.00 0.00 0.00 58 1011.2
20260901223010 18 181 1.6 8.0 0.00 0.00 0.00 59 1011.1
20260901221509 18 293 3.2 11.3 0.00 0.00 0.00 58 1011.2
20260901220101 18 293 3.2 9.7 0.00 0.00 0.00 58 1011.2
20260901214600 18 287 3.2 8.0 0.00 0.00 0.00 58 1011.1
20260901213053 18 239 1.6 9.7 0.00 0.00 0.00 58 1011.0
20260901211548 18 293 1.6 11.3 0.00 0.00 0.00 58 1011.1
20260901210056 18 290 1.6 11.3 0.00 0.00 0.00 58 1011.0
20260901204542 17 169 3.2 9.7 0.00 0.00 0.00 58 1011.0
20260901203045 18 298 3.2 9.7 0.00 0.00 0.00 57 1011.1
20260901201529 18 79 3.2 12.9 0.00 0.00 0.00 56 1011.2
20260901200027 18 200 3.2 11.3 0.00 0.00 0.00 56 1011.1
20260901194521 17 171 3.2 8.0 0.00 0.00 0.00 56 1011.3
20260901193016 17 190 3.2 14.5 0.00 0.00 0.00 55 1011.5
20260901191514 17 265 1.6 8.0 0.00 0.00 0.00 54 1011.6
20260901190009 17 281 1.6 4.8 0.00 0.00 0.00 53 1011.7
20260901184502 17 217 3.2 8.0 0.00 0.00 0.00 53 1011.8
20260901183059 16 239 3.2 14.5 0.00 0.00 0.00 48 1011.9
20260901181555 16 207 3.2 16.1 0.00 0.00 0.00 44 1012.0
20260901180050 16 15 0.0 6.4 0.00 0.00 0.00 37 1012.1
20260901174549 16 201 1.6 9.7 0.00 0.00 0.00 35 1012.0
20260901173042 15 303 1.6 6.4 0.00 0.00 0.00 10 1012.0
20260901171541 15 215 3.2 11.3 0.00 0.00 0.00 14 1011.9
20260901170032 15 215 3.2 9.7 0.00 0.00 0.00 17 1012.0
20260901164533 15 188 0.0 6.4 0.00 0.00 0.00 7 1011.9
20260901163026 14 235 0.0 4.8 0.00 0.00 0.00 100 1011.9
20260901161519 13 203 0.0 4.8 0.00 0.00 0.00 100 1012.1
20260901160015 13 201 0.0 3.2 0.00 0.00 0.00 100 1012.1
20260901154520 13 194 0.0 3.2 0.00 0.00 0.00 100 1012.1
20260901153006 13 198 0.0 4.8 0.00 0.00 0.00 100 1012.0
20260901151502 13 197 0.0 6.4 0.00 0.00 0.00 100 1012.1
20260901150101 13 207 1.6 6.4 0.00 0.00 0.00 6 1012.0
20260901144552 13 227 0.0 3.2 0.00 0.00 0.00 15 1011.9
20260901143059 13 244 0.0 4.8 0.00 0.00 0.00 23 1011.8
20260901141548 14 189 3.2 9.7 0.00 0.00 0.00 29 1011.7
20260901140039 14 187 0.0 6.4 0.00 0.00 0.00 30 1011.5
20260901134539 14 195 0.0 4.8 0.00 0.00 0.00 29 1011.5
20260901133041 13 204 0.0 3.2 0.00 0.00 0.00 29 1011.3
20260901131525 13 204 0.0 1.6 0.00 0.00 0.00 29 1011.3
20260901130020 13 204 0.0 1.6 0.00 0.00 0.00 27 1011.4
20260901124517 13 204 0.0 0.0 0.00 0.00 0.00 25 1011.3
20260901123012 13 204 0.0 1.6 0.00 0.00 0.00 24 1011.3
20260901121508 13 204 0.0 3.2 0.00 0.00 0.00 23 1011.4
20260901120003 13 204 0.0 3.2 0.00 0.00 0.00 23 1011.3
20260901114601 13 204 0.0 1.6 0.00 0.00 0.00 21 1011.3
20260901113059 13 204 0.0 3.2 0.00 0.00 0.00 20 1011.3
20260901111552 13 204 0.0 3.2 0.00 0.00 0.00 19 1011.1
20260901110050 13 205 0.0 1.6 0.00 0.00 0.00 17 1011.1
20260901104546 13 205 0.0 3.2 0.00 0.00 0.00 16 1011.0
20260901103036 12 207 1.6 6.4 0.00 0.00 0.00 13 1011.0
20260901101532 12 216 0.0 4.8 0.00 0.00 0.00 9 1010.9
20260901100030 12 234 0.0 4.8 0.00 0.00 0.00 12 1011.0
20260901094529 12 176 0.0 3.2 0.00 0.00 0.00 13 1010.9
20260901093027 12 176 0.0 4.8 0.00 0.00 0.00 14 1011.0
20260901091526 12 175 0.0 1.6 0.00 0.00 0.00 15 1010.9
20260901090030 12 206 0.0 4.8 0.00 0.00 0.00 15 1010.8
20260901084524 12 203 1.6 6.4 0.00 0.00 0.00 15 1010.7
20260901083022 12 232 0.0 0.0 0.00 0.00 0.00 22 1010.7
20260901081518 13 237 0.0 3.2 0.00 0.00 0.00 25 1010.6
20260901080015 13 238 0.0 1.6 0.00 0.00 0.00 30 1010.6
20260901074513 13 238 0.0 1.6 0.00 0.00 0.00 32 1010.7
20260901073011 13 238 0.0 4.8 0.00 0.00 0.00 34 1010.5
20260901071510 13 238 0.0 3.2 0.00 0.00 0.00 37 1010.4
20260901070009 13 233 0.0 3.2 0.00 0.00 0.00 38 1010.4
20260901064502 14 225 1.6 4.8 0.00 0.00 0.00 41 1010.3
20260901063058 14 278 0.0 6.4 0.00 0.00 0.00 43 1010.1
20260901061600 14 282 1.6 11.3 0.00 0.00 0.00 45 1009.9
20260901060049 15 215 3.2 12.9 0.00 0.00 0.00 46 1010.0
20260901054545 15 227 1.6 17.7 0.00 0.00 0.00 48 1009.9
20260901053042 15 250 3.2 9.7 0.00 0.00 0.00 51 1009.6
20260901051540 15 248 1.6 4.8 0.00 0.00 0.00 52 1009.6
20260901050032 15 203 1.6 6.4 0.00 0.00 0.00 54 1009.4
20260901044529 16 261 0.0 1.6 0.00 0.00 0.00 58 1009.2
20260901043027 16 261 0.0 3.2 0.00 0.00 0.00 60 1009.1
20260901041519 17 218 1.6 6.4 0.00 0.00 0.00 62 1008.7
20260901040015 17 200 1.6 11.3 0.00 0.00 0.00 63 1008.5
20260901034510 18 198 4.8 11.3 0.00 0.00 0.00 63 1008.2
20260901033008 19 198 1.6 12.9 0.00 0.00 0.00 62 1008.0
20260901031501 20 269 0.0 12.9 0.00 0.00 0.00 60 1007.8
20260901030057 21 320 1.6 4.8 0.00 0.00 0.00 56 1007.6
20260901024552 21 298 0.0 8.0 0.00 0.00 0.00 54 1007.5
20260901023054 22 275 1.6 6.4 0.00 0.00 0.00 53 1007.3
20260901021544 23 284 1.6 11.3 0.00 0.00 0.00 50 1007.2
20260901020039 25 288 3.2 8.0 0.00 0.00 0.00 48 1007.0